| time (UTC) | temp F | wind direction | speed MPH | gust MPH | rain 1hr in | rain 24hr in | rain mn in | humidity % | barometer mb |
| 20260831231018 | 76 | 279 | 10.0 | 14.0 | 0.00 | 0.00 | 0.00 | 49 | 1011.1 |
| 20260831230520 | 77 | 250 | 10.0 | 14.0 | 0.00 | 0.00 | 0.00 | 49 | 1011.2 |
| 20260831230037 | 77 | 258 | 8.0 | 16.0 | 0.00 | 0.00 | 0.00 | 50 | 1011.3 |
| 20260831225521 | 77 | 256 | 10.0 | 16.0 | 0.00 | 0.00 | 0.00 | 49 | 1011.3 |
| 20260831225019 | 78 | 247 | 10.0 | 16.0 | 0.00 | 0.00 | 0.00 | 49 | 1011.3 |
| 20260831224537 | 77 | 230 | 11.0 | 16.0 | 0.00 | 0.00 | 0.00 | 48 | 1011.4 |
| 20260831224020 | 78 | 248 | 10.0 | 16.0 | 0.00 | 0.00 | 0.00 | 48 | 1011.3 |
| 20260831223519 | 79 | 269 | 10.0 | 16.0 | 0.00 | 0.00 | 0.00 | 46 | 1011.3 |
| 20260831223035 | 78 | 279 | 11.0 | 16.0 | 0.00 | 0.00 | 0.00 | 46 | 1011.4 |
| 20260831222517 | 79 | 267 | 9.0 | 15.0 | 0.00 | 0.00 | 0.00 | 47 | 1011.4 |
| 20260831222019 | 79 | 269 | 11.0 | 15.0 | 0.00 | 0.00 | 0.00 | 46 | 1011.4 |
| 20260831221537 | 78 | 277 | 9.0 | 19.0 | 0.00 | 0.00 | 0.00 | 46 | 1011.4 |
| 20260831221018 | 78 | 250 | 10.0 | 19.0 | 0.00 | 0.00 | 0.00 | 45 | 1011.5 |
| 20260831220522 | 79 | 242 | 8.0 | 18.0 | 0.00 | 0.00 | 0.00 | 45 | 1011.5 |
| 20260831220037 | 80 | 254 | 9.0 | 15.0 | 0.00 | 0.00 | 0.00 | 44 | 1011.5 |
| 20260831215519 | 79 | 223 | 9.0 | 18.0 | 0.00 | 0.00 | 0.00 | 44 | 1011.6 |
| 20260831215020 | 79 | 255 | 10.0 | 18.0 | 0.00 | 0.00 | 0.00 | 45 | 1011.6 |
| 20260831214536 | 79 | 277 | 10.0 | 18.0 | 0.00 | 0.00 | 0.00 | 45 | 1011.7 |
| 20260831214019 | 79 | 238 | 10.0 | 16.0 | 0.00 | 0.00 | 0.00 | 47 | 1011.7 |
| 20260831213520 | 79 | 278 | 8.0 | 16.0 | 0.00 | 0.00 | 0.00 | 45 | 1011.8 |
| 20260831213036 | 78 | 257 | 10.0 | 16.0 | 0.00 | 0.00 | 0.00 | 45 | 1011.9 |
| 20260831212519 | 79 | 274 | 9.0 | 14.0 | 0.00 | 0.00 | 0.00 | 45 | 1011.9 |
| 20260831212017 | 78 | 258 | 8.0 | 16.0 | 0.00 | 0.00 | 0.00 | 46 | 1011.9 |
| 20260831211538 | 78 | 238 | 9.0 | 16.0 | 0.00 | 0.00 | 0.00 | 46 | 1011.9 |
| 20260831211016 | 78 | 286 | 9.0 | 16.0 | 0.00 | 0.00 | 0.00 | 45 | 1011.9 |
| 20260831210517 | 78 | 287 | 6.0 | 15.0 | 0.00 | 0.00 | 0.00 | 48 | 1011.8 |
| 20260831210043 | 77 | 225 | 9.0 | 15.0 | 0.00 | 0.00 | 0.00 | 48 | 1011.9 |
| 20260831205518 | 77 | 242 | 7.0 | 14.0 | 0.00 | 0.00 | 0.00 | 47 | 1012.0 |
| 20260831205020 | 77 | 244 | 10.0 | 14.0 | 0.00 | 0.00 | 0.00 | 47 | 1012.1 |
| 20260831204538 | 77 | 302 | 6.0 | 14.0 | 0.00 | 0.00 | 0.00 | 47 | 1012.0 |
| 20260831204020 | 77 | 244 | 10.0 | 14.0 | 0.00 | 0.00 | 0.00 | 47 | 1012.1 |
| 20260831203520 | 77 | 215 | 7.0 | 15.0 | 0.00 | 0.00 | 0.00 | 46 | 1012.1 |
| 20260831203037 | 77 | 248 | 7.0 | 15.0 | 0.00 | 0.00 | 0.00 | 47 | 1012.2 |
| 20260831202519 | 77 | 255 | 11.0 | 17.0 | 0.00 | 0.00 | 0.00 | 46 | 1012.2 |
| 20260831202016 | 77 | 234 | 10.0 | 17.0 | 0.00 | 0.00 | 0.00 | 47 | 1012.3 |
| 20260831201546 | 76 | 235 | 10.0 | 17.0 | 0.00 | 0.00 | 0.00 | 48 | 1012.4 |
| 20260831201019 | 75 | 255 | 8.0 | 15.0 | 0.00 | 0.00 | 0.00 | 50 | 1012.4 |
| 20260831200520 | 75 | 243 | 11.0 | 15.0 | 0.00 | 0.00 | 0.00 | 50 | 1012.4 |
| 20260831200036 | 75 | 257 | 8.0 | 16.0 | 0.00 | 0.00 | 0.00 | 50 | 1012.5 |
| 20260831195518 | 75 | 259 | 11.0 | 16.0 | 0.00 | 0.00 | 0.00 | 50 | 1012.4 |
| 20260831195019 | 75 | 261 | 11.0 | 16.0 | 0.00 | 0.00 | 0.00 | 50 | 1012.7 |
| 20260831194536 | 74 | 226 | 10.0 | 14.0 | 0.00 | 0.00 | 0.00 | 50 | 1012.5 |
| 20260831194024 | 74 | 250 | 8.0 | 14.0 | 0.00 | 0.00 | 0.00 | 51 | 1012.7 |
| 20260831193520 | 74 | 251 | 10.0 | 15.0 | 0.00 | 0.00 | 0.00 | 51 | 1012.8 |
| 20260831193037 | 74 | 267 | 10.0 | 15.0 | 0.00 | 0.00 | 0.00 | 53 | 1012.8 |
| 20260831192519 | 74 | 228 | 10.0 | 17.0 | 0.00 | 0.00 | 0.00 | 54 | 1013.0 |
| 20260831192020 | 73 | 229 | 10.0 | 17.0 | 0.00 | 0.00 | 0.00 | 53 | 1013.0 |
| 20260831191541 | 73 | 252 | 12.0 | 17.0 | 0.00 | 0.00 | 0.00 | 52 | 1013.0 |
| 20260831191018 | 73 | 252 | 9.0 | 17.0 | 0.00 | 0.00 | 0.00 | 54 | 1012.9 |
| 20260831190520 | 72 | 228 | 11.0 | 15.0 | 0.00 | 0.00 | 0.00 | 53 | 1012.9 |
| 20260831190038 | 72 | 230 | 9.0 | 16.0 | 0.00 | 0.00 | 0.00 | 54 | 1012.9 |
| 20260831185517 | 73 | 251 | 11.0 | 16.0 | 0.00 | 0.00 | 0.00 | 54 | 1012.9 |
| 20260831185015 | 72 | 264 | 10.0 | 14.0 | 0.00 | 0.00 | 0.00 | 56 | 1012.9 |
| 20260831184538 | 71 | 235 | 8.0 | 16.0 | 0.00 | 0.00 | 0.00 | 57 | 1012.8 |
| 20260831184017 | 70 | 265 | 9.0 | 16.0 | 0.00 | 0.00 | 0.00 | 57 | 1012.9 |
| 20260831183518 | 70 | 218 | 11.0 | 17.0 | 0.00 | 0.00 | 0.00 | 57 | 1012.9 |
| 20260831183036 | 70 | 234 | 11.0 | 17.0 | 0.00 | 0.00 | 0.00 | 58 | 1012.8 |
| 20260831182518 | 69 | 269 | 10.0 | 17.0 | 0.00 | 0.00 | 0.00 | 58 | 1012.8 |
| 20260831182018 | 70 | 237 | 10.0 | 17.0 | 0.00 | 0.00 | 0.00 | 57 | 1012.8 |
| 20260831181543 | 70 | 242 | 11.0 | 17.0 | 0.00 | 0.00 | 0.00 | 58 | 1012.8 |
| 20260831181020 | 70 | 222 | 8.0 | 14.0 | 0.00 | 0.00 | 0.00 | 60 | 1012.8 |
| 20260831180517 | 69 | 246 | 8.0 | 17.0 | 0.00 | 0.00 | 0.00 | 61 | 1012.8 |
| 20260831180038 | 69 | 241 | 11.0 | 17.0 | 0.00 | 0.00 | 0.00 | 59 | 1012.8 |
| 20260831175516 | 69 | 287 | 9.0 | 14.0 | 0.00 | 0.00 | 0.00 | 61 | 1012.8 |
| 20260831175019 | 70 | 236 | 10.0 | 15.0 | 0.00 | 0.00 | 0.00 | 59 | 1012.8 |
| 20260831174535 | 69 | 261 | 10.0 | 15.0 | 0.00 | 0.00 | 0.00 | 60 | 1012.7 |
| 20260831174121 | 69 | 265 | 9.0 | 14.0 | 0.00 | 0.00 | 0.00 | 61 | 1012.7 |
| 20260831173519 | 69 | 272 | 9.0 | 14.0 | 0.00 | 0.00 | 0.00 | 61 | 1012.7 |
| 20260831173036 | 69 | 261 | 9.0 | 14.0 | 0.00 | 0.00 | 0.00 | 61 | 1012.8 |
| 20260831172517 | 69 | 248 | 9.0 | 17.0 | 0.00 | 0.00 | 0.00 | 61 | 1012.7 |
| 20260831172020 | 68 | 240 | 9.0 | 17.0 | 0.00 | 0.00 | 0.00 | 62 | 1012.7 |
| 20260831171535 | 68 | 255 | 10.0 | 17.0 | 0.00 | 0.00 | 0.00 | 62 | 1012.6 |
| 20260831171016 | 68 | 236 | 8.0 | 15.0 | 0.00 | 0.00 | 0.00 | 63 | 1012.5 |
| 20260831170521 | 68 | 262 | 10.0 | 15.0 | 0.00 | 0.00 | 0.00 | 62 | 1012.5 |
| 20260831170043 | 67 | 238 | 10.0 | 15.0 | 0.00 | 0.00 | 0.00 | 63 | 1012.5 |
| 20260831165517 | 67 | 256 | 10.0 | 14.0 | 0.00 | 0.00 | 0.00 | 64 | 1012.5 |
| 20260831165019 | 67 | 226 | 9.0 | 14.0 | 0.00 | 0.00 | 0.00 | 64 | 1012.5 |
| 20260831164537 | 67 | 246 | 8.0 | 14.0 | 0.00 | 0.00 | 0.00 | 65 | 1012.5 |
| 20260831164018 | 66 | 223 | 9.0 | 14.0 | 0.00 | 0.00 | 0.00 | 66 | 1012.5 |
| 20260831163518 | 66 | 220 | 9.0 | 13.0 | 0.00 | 0.00 | 0.00 | 67 | 1012.5 |
| 20260831163039 | 65 | 261 | 9.0 | 13.0 | 0.00 | 0.00 | 0.00 | 67 | 1012.5 |
| 20260831162520 | 65 | 281 | 5.0 | 11.0 | 0.00 | 0.00 | 0.00 | 68 | 1012.4 |
| 20260831162016 | 65 | 254 | 8.0 | 11.0 | 0.00 | 0.00 | 0.00 | 69 | 1012.4 |
| 20260831161537 | 64 | 250 | 6.0 | 10.0 | 0.00 | 0.00 | 0.00 | 70 | 1012.4 |
| 20260831161023 | 64 | 227 | 5.0 | 10.0 | 0.00 | 0.00 | 0.00 | 72 | 1012.4 |
| 20260831160519 | 63 | 283 | 5.0 | 10.0 | 0.00 | 0.00 | 0.00 | 72 | 1012.5 |
| 20260831160050 | 63 | 250 | 6.0 | 11.0 | 0.00 | 0.00 | 0.00 | 73 | 1012.5 |
| 20260831155520 | 63 | 251 | 6.0 | 12.0 | 0.00 | 0.00 | 0.00 | 73 | 1012.5 |
| 20260831155020 | 62 | 254 | 6.0 | 12.0 | 0.00 | 0.00 | 0.00 | 74 | 1012.4 |
| 20260831154602 | 62 | 266 | 8.0 | 12.0 | 0.00 | 0.00 | 0.00 | 74 | 1012.4 |
| 20260831154018 | 62 | 257 | 7.0 | 11.0 | 0.00 | 0.00 | 0.00 | 76 | 1012.4 |
| 20260831153520 | 61 | 234 | 7.0 | 11.0 | 0.00 | 0.00 | 0.00 | 77 | 1012.4 |
| 20260831153038 | 61 | 267 | 4.0 | 8.0 | 0.00 | 0.00 | 0.00 | 79 | 1012.3 |
| 20260831152516 | 60 | 225 | 3.0 | 10.0 | 0.00 | 0.00 | 0.00 | 80 | 1012.4 |
| 20260831152021 | 60 | 241 | 6.0 | 10.0 | 0.00 | 0.00 | 0.00 | 81 | 1012.3 |
| 20260831151538 | 59 | 275 | 4.0 | 7.0 | 0.00 | 0.00 | 0.00 | 82 | 1012.3 |
| 20260831151021 | 59 | 289 | 2.0 | 7.0 | 0.00 | 0.00 | 0.00 | 82 | 1012.3 |
| 20260831150521 | 58 | 264 | 3.0 | 7.0 | 0.00 | 0.00 | 0.00 | 83 | 1012.2 |
| 20260831150035 | 58 | 250 | 3.0 | 7.0 | 0.00 | 0.00 | 0.00 | 84 | 1012.1 |
| 20260831145518 | 57 | 289 | 2.0 | 6.0 | 0.00 | 0.00 | 0.00 | 85 | 1012.1 |
| 20260831145023 | 57 | 258 | 3.0 | 6.0 | 0.00 | 0.00 | 0.00 | 86 | 1012.0 |
| 20260831144536 | 57 | 0 | 0.0 | 4.0 | 0.00 | 0.00 | 0.00 | 86 | 1011.9 |
| 20260831144018 | 56 | 269 | 1.0 | 4.0 | 0.00 | 0.00 | 0.00 | 86 | 1011.9 |
| 20260831143518 | 56 | 283 | 2.0 | 6.0 | 0.00 | 0.00 | 0.00 | 86 | 1011.8 |
| 20260831143040 | 56 | 262 | 3.0 | 6.0 | 0.00 | 0.00 | 0.00 | 86 | 1011.7 |
| 20260831142518 | 55 | 265 | 3.0 | 6.0 | 0.00 | 0.00 | 0.00 | 86 | 1011.7 |
| 20260831142020 | 55 | 0 | 0.0 | 0.0 | 0.00 | 0.00 | 0.00 | 86 | 1011.7 |
| 20260831141539 | 55 | 0 | 0.0 | 0.0 | 0.00 | 0.00 | 0.00 | 86 | 1011.7 |
| 20260831141018 | 55 | 0 | 0.0 | 0.0 | 0.00 | 0.00 | 0.00 | 85 | 1011.6 |
| 20260831140522 | 55 | 0 | 0.0 | 0.0 | 0.00 | 0.00 | 0.00 | 85 | 1011.5 |
| 20260831140043 | 55 | 0 | 0.0 | 2.0 | 0.00 | 0.00 | 0.00 | 85 | 1011.5 |
| 20260831135520 | 55 | 0 | 0.0 | 3.0 | 0.00 | 0.00 | 0.00 | 85 | 1011.4 |
| 20260831135018 | 55 | 0 | 0.0 | 4.0 | 0.00 | 0.00 | 0.00 | 85 | 1011.3 |
| 20260831134538 | 55 | 275 | 1.0 | 6.0 | 0.00 | 0.00 | 0.00 | 85 | 1011.3 |
| 20260831134019 | 55 | 259 | 2.0 | 6.0 | 0.00 | 0.00 | 0.00 | 85 | 1011.2 |
| 20260831133521 | 55 | 259 | 3.0 | 6.0 | 0.00 | 0.00 | 0.00 | 85 | 1011.2 |
| 20260831133036 | 55 | 261 | 3.0 | 6.0 | 0.00 | 0.00 | 0.00 | 85 | 1011.1 |
| 20260831132521 | 55 | 267 | 2.0 | 6.0 | 0.00 | 0.00 | 0.00 | 85 | 1011.0 |
| 20260831132025 | 55 | 250 | 3.0 | 7.0 | 0.00 | 0.00 | 0.00 | 85 | 1011.0 |
| 20260831131538 | 55 | 253 | 3.0 | 7.0 | 0.00 | 0.00 | 0.00 | 85 | 1011.1 |
| 20260831131023 | 55 | 238 | 4.0 | 8.0 | 0.00 | 0.00 | 0.00 | 85 | 1011.0 |
| 20260831130520 | 56 | 257 | 5.0 | 8.0 | 0.00 | 0.00 | 0.00 | 85 | 1011.0 |
| 20260831130038 | 56 | 252 | 4.0 | 8.0 | 0.00 | 0.00 | 0.00 | 85 | 1010.8 |
| 20260831125519 | 56 | 264 | 4.0 | 9.0 | 0.00 | 0.00 | 0.00 | 85 | 1010.8 |
| 20260831125020 | 56 | 254 | 3.0 | 10.0 | 0.00 | 0.00 | 0.00 | 85 | 1010.8 |
| 20260831124537 | 56 | 256 | 6.0 | 10.0 | 0.00 | 0.00 | 0.00 | 86 | 1010.8 |
| 20260831124017 | 55 | 269 | 5.0 | 8.0 | 0.00 | 0.00 | 0.00 | 85 | 1010.7 |
| 20260831123516 | 55 | 267 | 5.0 | 9.0 | 0.00 | 0.00 | 0.00 | 86 | 1010.6 |
| 20260831123038 | 55 | 269 | 5.0 | 9.0 | 0.00 | 0.00 | 0.00 | 86 | 1010.6 |
| 20260831122521 | 55 | 283 | 6.0 | 9.0 | 0.00 | 0.00 | 0.00 | 86 | 1010.6 |
| 20260831122018 | 54 | 243 | 4.0 | 7.0 | 0.00 | 0.00 | 0.00 | 86 | 1010.7 |
| 20260831121536 | 54 | 277 | 3.0 | 7.0 | 0.00 | 0.00 | 0.00 | 85 | 1010.6 |
| 20260831121019 | 54 | 0 | 0.0 | 0.0 | 0.00 | 0.00 | 0.00 | 85 | 1010.6 |
| 20260831120523 | 54 | 0 | 0.0 | 0.0 | 0.00 | 0.00 | 0.00 | 84 | 1010.6 |
| 20260831120040 | 54 | 0 | 0.0 | 0.0 | 0.00 | 0.00 | 0.00 | 84 | 1010.7 |
| 20260831115518 | 54 | 0 | 0.0 | 0.0 | 0.00 | 0.00 | 0.00 | 84 | 1010.7 |
| 20260831115018 | 54 | 0 | 0.0 | 0.0 | 0.00 | 0.00 | 0.00 | 84 | 1010.7 |
| 20260831114547 | 54 | 0 | 0.0 | 0.0 | 0.00 | 0.00 | 0.00 | 84 | 1010.7 |
| 20260831114018 | 54 | 0 | 0.0 | 0.0 | 0.00 | 0.00 | 0.00 | 84 | 1010.6 |
| 20260831113518 | 54 | 0 | 0.0 | 0.0 | 0.00 | 0.00 | 0.00 | 85 | 1010.6 |
| 20260831113039 | 54 | 0 | 0.0 | 0.0 | 0.00 | 0.00 | 0.00 | 84 | 1010.6 |
| 20260831112516 | 54 | 0 | 0.0 | 0.0 | 0.00 | 0.00 | 0.00 | 84 | 1010.6 |
| 20260831112018 | 54 | 0 | 0.0 | 0.0 | 0.00 | 0.00 | 0.00 | 83 | 1010.6 |
| 20260831111538 | 54 | 0 | 0.0 | 0.0 | 0.00 | 0.00 | 0.00 | 82 | 1010.7 |
| 20260831111020 | 54 | 0 | 0.0 | 0.0 | 0.00 | 0.00 | 0.00 | 83 | 1010.8 |
| 20260831110518 | 54 | 0 | 0.0 | 0.0 | 0.00 | 0.00 | 0.00 | 82 | 1010.8 |
| 20260831110049 | 54 | 0 | 0.0 | 0.0 | 0.00 | 0.00 | 0.00 | 82 | 1010.8 |
| 20260831105520 | 54 | 0 | 0.0 | 0.0 | 0.00 | 0.00 | 0.00 | 82 | 1010.7 |
| 20260831105018 | 54 | 0 | 0.0 | 0.0 | 0.00 | 0.00 | 0.00 | 80 | 1010.7 |
| 20260831104541 | 55 | 0 | 0.0 | 0.0 | 0.00 | 0.00 | 0.00 | 80 | 1010.7 |
| 20260831104018 | 56 | 0 | 0.0 | 0.0 | 0.00 | 0.00 | 0.00 | 78 | 1010.7 |
| 20260831103518 | 56 | 0 | 0.0 | 0.0 | 0.00 | 0.00 | 0.00 | 79 | 1010.7 |
| 20260831103039 | 57 | 0 | 0.0 | 0.0 | 0.00 | 0.00 | 0.00 | 81 | 1010.6 |
| 20260831102517 | 56 | 0 | 0.0 | 0.0 | 0.00 | 0.00 | 0.00 | 79 | 1010.6 |
| 20260831102017 | 56 | 0 | 0.0 | 0.0 | 0.00 | 0.00 | 0.00 | 80 | 1010.6 |
| 20260831101545 | 56 | 0 | 0.0 | 0.0 | 0.00 | 0.00 | 0.00 | 81 | 1010.5 |
| 20260831101018 | 56 | 0 | 0.0 | 0.0 | 0.00 | 0.00 | 0.00 | 81 | 1010.4 |
| 20260831100518 | 56 | 0 | 0.0 | 0.0 | 0.00 | 0.00 | 0.00 | 82 | 1010.4 |
| 20260831100034 | 55 | 0 | 0.0 | 0.0 | 0.00 | 0.00 | 0.00 | 81 | 1010.4 |
| 20260831095518 | 55 | 0 | 0.0 | 0.0 | 0.00 | 0.00 | 0.00 | 82 | 1010.4 |
| 20260831095023 | 55 | 0 | 0.0 | 0.0 | 0.00 | 0.00 | 0.00 | 83 | 1010.4 |
| 20260831094541 | 55 | 0 | 0.0 | 0.0 | 0.00 | 0.00 | 0.00 | 81 | 1010.5 |
| 20260831094019 | 56 | 0 | 0.0 | 0.0 | 0.00 | 0.00 | 0.00 | 79 | 1010.5 |
| 20260831093518 | 56 | 0 | 0.0 | 0.0 | 0.00 | 0.00 | 0.00 | 81 | 1010.4 |
| 20260831093037 | 57 | 0 | 0.0 | 0.0 | 0.00 | 0.00 | 0.00 | 80 | 1010.5 |
| 20260831092518 | 57 | 0 | 0.0 | 0.0 | 0.00 | 0.00 | 0.00 | 81 | 1010.4 |
| 20260831092019 | 57 | 0 | 0.0 | 0.0 | 0.00 | 0.00 | 0.00 | 80 | 1010.5 |
| 20260831091546 | 57 | 0 | 0.0 | 0.0 | 0.00 | 0.00 | 0.00 | 81 | 1010.6 |
| 20260831091019 | 57 | 0 | 0.0 | 0.0 | 0.00 | 0.00 | 0.00 | 80 | 1010.5 |
| 20260831090518 | 58 | 0 | 0.0 | 0.0 | 0.00 | 0.00 | 0.00 | 80 | 1010.5 |
| 20260831090037 | 58 | 0 | 0.0 | 0.0 | 0.00 | 0.00 | 0.00 | 80 | 1010.6 |
| 20260831085522 | 58 | 0 | 0.0 | 0.0 | 0.00 | 0.00 | 0.00 | 79 | 1010.5 |
| 20260831085020 | 58 | 0 | 0.0 | 0.0 | 0.00 | 0.00 | 0.00 | 76 | 1010.5 |
| 20260831084537 | 59 | 0 | 0.0 | 0.0 | 0.00 | 0.00 | 0.00 | 75 | 1010.6 |
| 20260831084020 | 59 | 0 | 0.0 | 0.0 | 0.00 | 0.00 | 0.00 | 74 | 1010.6 |
| 20260831083519 | 59 | 0 | 0.0 | 0.0 | 0.00 | 0.00 | 0.00 | 73 | 1010.5 |
| 20260831083037 | 61 | 0 | 0.0 | 0.0 | 0.00 | 0.00 | 0.00 | 71 | 1010.5 |
| 20260831082516 | 61 | 0 | 0.0 | 0.0 | 0.00 | 0.00 | 0.00 | 71 | 1010.4 |
| 20260831082018 | 61 | 0 | 0.0 | 0.0 | 0.00 | 0.00 | 0.00 | 71 | 1010.5 |
| 20260831081536 | 61 | 0 | 0.0 | 0.0 | 0.00 | 0.00 | 0.00 | 70 | 1010.4 |
| 20260831081018 | 62 | 0 | 0.0 | 0.0 | 0.00 | 0.00 | 0.00 | 70 | 1010.6 |
| 20260831080519 | 62 | 0 | 0.0 | 0.0 | 0.00 | 0.00 | 0.00 | 70 | 1010.5 |
| 20260831080037 | 62 | 0 | 0.0 | 0.0 | 0.00 | 0.00 | 0.00 | 70 | 1010.5 |
| 20260831075518 | 61 | 0 | 0.0 | 0.0 | 0.00 | 0.00 | 0.00 | 71 | 1010.6 |
| 20260831075019 | 61 | 0 | 0.0 | 0.0 | 0.00 | 0.00 | 0.00 | 70 | 1010.6 |
| 20260831074541 | 61 | 0 | 0.0 | 0.0 | 0.00 | 0.00 | 0.00 | 71 | 1010.6 |
| 20260831074017 | 61 | 0 | 0.0 | 0.0 | 0.00 | 0.00 | 0.00 | 71 | 1010.5 |
| 20260831073516 | 62 | 0 | 0.0 | 0.0 | 0.00 | 0.00 | 0.00 | 70 | 1010.6 |
| 20260831073036 | 62 | 0 | 0.0 | 0.0 | 0.00 | 0.00 | 0.00 | 71 | 1010.6 |
| 20260831072516 | 62 | 0 | 0.0 | 0.0 | 0.00 | 0.00 | 0.00 | 70 | 1010.6 |
| 20260831072015 | 62 | 0 | 0.0 | 0.0 | 0.00 | 0.00 | 0.00 | 69 | 1010.6 |
| 20260831071540 | 62 | 0 | 0.0 | 0.0 | 0.00 | 0.00 | 0.00 | 70 | 1010.5 |
| 20260831071018 | 62 | 0 | 0.0 | 0.0 | 0.00 | 0.00 | 0.00 | 69 | 1010.6 |
| 20260831070520 | 62 | 0 | 0.0 | 0.0 | 0.00 | 0.00 | 0.00 | 69 | 1010.5 |
| 20260831070036 | 62 | 0 | 0.0 | 0.0 | 0.00 | 0.00 | 0.00 | 68 | 1010.5 |
| 20260831065518 | 63 | 0 | 0.0 | 0.0 | 0.00 | 0.00 | 0.00 | 68 | 1010.6 |
| 20260831065022 | 63 | 0 | 0.0 | 0.0 | 0.00 | 0.00 | 0.00 | 68 | 1010.6 |
| 20260831064536 | 63 | 0 | 0.0 | 0.0 | 0.00 | 0.00 | 0.00 | 68 | 1010.6 |
| 20260831064017 | 63 | 0 | 0.0 | 0.0 | 0.00 | 0.00 | 0.00 | 67 | 1010.6 |
| 20260831063518 | 63 | 0 | 0.0 | 0.0 | 0.00 | 0.00 | 0.00 | 69 | 1010.6 |
| 20260831063038 | 63 | 0 | 0.0 | 0.0 | 0.00 | 0.00 | 0.00 | 68 | 1010.6 |
| 20260831062518 | 63 | 0 | 0.0 | 0.0 | 0.00 | 0.00 | 0.00 | 68 | 1010.7 |
| 20260831062019 | 63 | 0 | 0.0 | 0.0 | 0.00 | 0.00 | 0.00 | 68 | 1010.7 |
| 20260831061537 | 63 | 0 | 0.0 | 0.0 | 0.00 | 0.00 | 0.00 | 68 | 1010.7 |
| 20260831061021 | 63 | 0 | 0.0 | 0.0 | 0.00 | 0.00 | 0.00 | 67 | 1010.7 |
| 20260831060518 | 63 | 0 | 0.0 | 0.0 | 0.00 | 0.00 | 0.00 | 67 | 1010.7 |
| 20260831060042 | 64 | 0 | 0.0 | 0.0 | 0.00 | 0.00 | 0.00 | 67 | 1010.7 |
| 20260831055523 | 63 | 0 | 0.0 | 0.0 | 0.00 | 0.00 | 0.00 | 67 | 1010.7 |
| 20260831055021 | 64 | 0 | 0.0 | 0.0 | 0.00 | 0.00 | 0.00 | 67 | 1010.6 |
| 20260831054537 | 64 | 0 | 0.0 | 0.0 | 0.00 | 0.00 | 0.00 | 67 | 1010.7 |
| 20260831054023 | 64 | 0 | 0.0 | 0.0 | 0.00 | 0.00 | 0.00 | 66 | 1010.6 |
| 20260831053519 | 64 | 0 | 0.0 | 0.0 | 0.00 | 0.00 | 0.00 | 65 | 1010.6 |
| 20260831053039 | 66 | 0 | 0.0 | 5.0 | 0.00 | 0.00 | 0.00 | 62 | 1010.5 |
| 20260831052518 | 67 | 0 | 0.0 | 7.0 | 0.00 | 0.00 | 0.00 | 63 | 1010.4 |
| 20260831052018 | 67 | 228 | 3.0 | 7.0 | 0.00 | 0.00 | 0.00 | 63 | 1010.4 |
| 20260831051543 | 67 | 238 | 4.0 | 9.0 | 0.00 | 0.00 | 0.00 | 62 | 1010.3 |
| 20260831051018 | 67 | 240 | 5.0 | 9.0 | 0.00 | 0.00 | 0.00 | 61 | 1010.3 |
| 20260831050519 | 68 | 232 | 4.0 | 10.0 | 0.00 | 0.00 | 0.00 | 61 | 1010.4 |
| 20260831050040 | 68 | 236 | 5.0 | 10.0 | 0.00 | 0.00 | 0.00 | 61 | 1010.4 |
| 20260831045519 | 68 | 237 | 5.0 | 8.0 | 0.00 | 0.00 | 0.00 | 60 | 1010.3 |
| 20260831045018 | 68 | 252 | 5.0 | 10.0 | 0.00 | 0.00 | 0.00 | 60 | 1010.4 |
| 20260831044539 | 69 | 232 | 5.0 | 10.0 | 0.00 | 0.00 | 0.00 | 59 | 1010.3 |
| 20260831044019 | 69 | 247 | 6.0 | 14.0 | 0.00 | 0.00 | 0.00 | 59 | 1010.3 |
| 20260831043521 | 69 | 257 | 8.0 | 14.0 | 0.00 | 0.00 | 0.00 | 58 | 1010.2 |
| 20260831043039 | 70 | 244 | 9.0 | 14.0 | 0.00 | 0.00 | 0.00 | 58 | 1010.1 |
| 20260831042518 | 70 | 251 | 6.0 | 13.0 | 0.00 | 0.00 | 0.00 | 58 | 1010.1 |
| 20260831042018 | 70 | 273 | 8.0 | 13.0 | 0.00 | 0.00 | 0.00 | 57 | 1010.0 |
| 20260831041549 | 71 | 246 | 8.0 | 13.0 | 0.00 | 0.00 | 0.00 | 56 | 1010.0 |
| 20260831041020 | 71 | 238 | 9.0 | 13.0 | 0.00 | 0.00 | 0.00 | 55 | 1010.0 |
| 20260831040520 | 71 | 229 | 8.0 | 13.0 | 0.00 | 0.00 | 0.00 | 55 | 1009.9 |
| 20260831040042 | 71 | 240 | 7.0 | 12.0 | 0.00 | 0.00 | 0.00 | 55 | 1009.9 |
| 20260831035518 | 72 | 242 | 6.0 | 12.0 | 0.00 | 0.00 | 0.00 | 54 | 1009.8 |
| 20260831035017 | 72 | 253 | 7.0 | 12.0 | 0.00 | 0.00 | 0.00 | 53 | 1009.7 |
| 20260831034536 | 73 | 246 | 8.0 | 11.0 | 0.00 | 0.00 | 0.00 | 52 | 1009.7 |
| 20260831034018 | 73 | 247 | 8.0 | 11.0 | 0.00 | 0.00 | 0.00 | 51 | 1009.6 |
| 20260831033520 | 73 | 252 | 6.0 | 10.0 | 0.00 | 0.00 | 0.00 | 50 | 1009.7 |
| 20260831033037 | 74 | 248 | 5.0 | 9.0 | 0.00 | 0.00 | 0.00 | 49 | 1009.6 |
| 20260831032523 | 74 | 254 | 5.0 | 8.0 | 0.00 | 0.00 | 0.00 | 49 | 1009.6 |
| 20260831032020 | 74 | 243 | 4.0 | 8.0 | 0.00 | 0.00 | 0.00 | 48 | 1009.5 |
| 20260831031540 | 75 | 246 | 4.0 | 8.0 | 0.00 | 0.00 | 0.00 | 47 | 1009.5 |
| 20260831031019 | 75 | 248 | 5.0 | 8.0 | 0.00 | 0.00 | 0.00 | 46 | 1009.4 |
| 20260831030516 | 76 | 260 | 5.0 | 8.0 | 0.00 | 0.00 | 0.00 | 46 | 1009.5 |
| 20260831030042 | 76 | 259 | 4.0 | 10.0 | 0.00 | 0.00 | 0.00 | 45 | 1009.4 |
| 20260831025519 | 77 | 242 | 5.0 | 10.0 | 0.00 | 0.00 | 0.00 | 44 | 1009.4 |
| 20260831025019 | 77 | 251 | 5.0 | 8.0 | 0.00 | 0.00 | 0.00 | 43 | 1009.4 |
| 20260831024541 | 78 | 262 | 5.0 | 9.0 | 0.00 | 0.00 | 0.00 | 42 | 1009.4 |
| 20260831024020 | 78 | 251 | 5.0 | 9.0 | 0.00 | 0.00 | 0.00 | 41 | 1009.4 |
| 20260831023520 | 79 | 247 | 6.0 | 9.0 | 0.00 | 0.00 | 0.00 | 40 | 1009.4 |
| 20260831023036 | 79 | 245 | 5.0 | 10.0 | 0.00 | 0.00 | 0.00 | 39 | 1009.3 |
| 20260831022519 | 80 | 248 | 4.0 | 10.0 | 0.00 | 0.00 | 0.00 | 38 | 1009.3 |
| 20260831022019 | 81 | 248 | 6.0 | 9.0 | 0.00 | 0.00 | 0.00 | 38 | 1009.3 |
| 20260831021539 | 81 | 248 | 4.0 | 10.0 | 0.00 | 0.00 | 0.00 | 37 | 1009.3 |
| 20260831021017 | 82 | 243 | 5.0 | 10.0 | 0.00 | 0.00 | 0.00 | 36 | 1009.4 |
| 20260831020518 | 82 | 252 | 6.0 | 10.0 | 0.00 | 0.00 | 0.00 | 36 | 1009.3 |
| 20260831020040 | 83 | 248 | 6.0 | 10.0 | 0.00 | 0.00 | 0.00 | 35 | 1009.4 |
| 20260831015517 | 83 | 240 | 6.0 | 10.0 | 0.00 | 0.00 | 0.00 | 35 | 1009.3 |
| 20260831015021 | 84 | 249 | 6.0 | 10.0 | 0.00 | 0.00 | 0.00 | 35 | 1009.3 |
| 20260831014537 | 84 | 249 | 5.0 | 10.0 | 0.00 | 0.00 | 0.00 | 34 | 1009.4 |
| 20260831014018 | 85 | 242 | 7.0 | 10.0 | 0.00 | 0.00 | 0.00 | 34 | 1009.4 |
| 20260831013520 | 85 | 238 | 7.0 | 11.0 | 0.00 | 0.00 | 0.00 | 34 | 1009.3 |
| 20260831013040 | 85 | 240 | 7.0 | 12.0 | 0.00 | 0.00 | 0.00 | 34 | 1009.3 |
| 20260831012518 | 85 | 248 | 8.0 | 12.0 | 0.00 | 0.00 | 0.00 | 33 | 1009.4 |
| 20260831012018 | 86 | 236 | 7.0 | 10.0 | 0.00 | 0.00 | 0.00 | 34 | 1009.4 |
| 20260831011539 | 86 | 254 | 6.0 | 11.0 | 0.00 | 0.00 | 0.00 | 33 | 1009.4 |
| 20260831011020 | 87 | 224 | 7.0 | 11.0 | 0.00 | 0.00 | 0.00 | 33 | 1009.3 |
| 20260831010517 | 87 | 248 | 7.0 | 11.0 | 0.00 | 0.00 | 0.00 | 33 | 1009.3 |
| 20260831010036 | 87 | 217 | 5.0 | 11.0 | 0.00 | 0.00 | 0.00 | 33 | 1009.3 |
| 20260831005518 | 88 | 265 | 7.0 | 10.0 | 0.00 | 0.00 | 0.00 | 33 | 1009.2 |
| 20260831005019 | 87 | 258 | 6.0 | 10.0 | 0.00 | 0.00 | 0.00 | 32 | 1009.3 |
| 20260831004536 | 88 | 240 | 6.0 | 9.0 | 0.00 | 0.00 | 0.00 | 31 | 1009.3 |
| 20260831004020 | 88 | 222 | 5.0 | 9.0 | 0.00 | 0.00 | 0.00 | 31 | 1009.4 |
| 20260831003519 | 89 | 260 | 6.0 | 9.0 | 0.00 | 0.00 | 0.00 | 32 | 1009.3 |
| 20260831003041 | 89 | 220 | 5.0 | 9.0 | 0.00 | 0.00 | 0.00 | 31 | 1009.4 |
| 20260831002518 | 89 | 254 | 5.0 | 9.0 | 0.00 | 0.00 | 0.00 | 30 | 1009.4 |
| 20260831002018 | 89 | 209 | 2.0 | 7.0 | 0.00 | 0.00 | 0.00 | 29 | 1009.4 |
| 20260831001538 | 88 | 238 | 3.0 | 7.0 | 0.00 | 0.00 | 0.00 | 30 | 1009.5 |
| 20260831001018 | 88 | 284 | 4.0 | 10.0 | 0.00 | 0.00 | 0.00 | 30 | 1009.5 |
| 20260831000518 | 89 | 273 | 7.0 | 10.0 | 0.00 | 0.00 | 0.00 | 30 | 1009.6 |
| 20260831000037 | 89 | 239 | 3.0 | 8.0 | 0.00 | 0.00 | 0.00 | 29 | 1009.7 |
| 20260830235520 | 88 | 267 | 3.0 | 9.0 | 0.00 | 0.00 | 0.00 | 29 | 1009.7 |
| 20260830235020 | 88 | 246 | 4.0 | 9.0 | 0.00 | 0.00 | 0.00 | 29 | 1009.7 |
| 20260830234546 | 89 | 273 | 4.0 | 8.0 | 0.00 | 0.00 | 0.00 | 32 | 1009.8 |
| 20260830234018 | 89 | 181 | 4.0 | 9.0 | 0.00 | 0.00 | 0.00 | 28 | 1009.8 |
| 20260830233517 | 89 | 230 | 4.0 | 11.0 | 0.00 | 0.00 | 0.00 | 32 | 1009.8 |
| 20260830233037 | 89 | 243 | 5.0 | 11.0 | 0.00 | 0.00 | 0.00 | 30 | 1009.8 |
| 20260830232519 | 89 | 242 | 4.0 | 8.0 | 0.00 | 0.00 | 0.00 | 28 | 1009.9 |
| 20260830232019 | 88 | 217 | 4.0 | 8.0 | 0.00 | 0.00 | 0.00 | 30 | 1009.9 |
| 20260830231539 | 89 | 202 | 1.0 | 8.0 | 0.00 | 0.00 | 0.00 | 32 | 1009.9 |